sat.trackr.live / text

‹ back to catalog

SINOD-D 3

NORAD 40977 · 2015-058P

PAYLOAD ACTIVE UNKNOWN

§ Identity

Operator
Country
US
Launch date
2015-10-08
Launch site
AFWTR
Launch vehicle
Mass (kg)
RCS (m²)

Purposes: tech_demo

External: N2YO · Heavens-Above · Gunter

§ Orbital elements

Epoch: 2026-05-25T00:17:37.422816Z

Period
96.40 min
Inclination
64.7739°
Eccentricity
0.0118415
Mean motion
14.93817106 rev/d
Perigee alt
503.6 km
Apogee alt
668.5 km
Semi-major
6,964.2 km
B*
3.3473e-4
RAAN
348.1781°
Arg perigee
67.4007°
Mean anomaly
293.9582°
Rev number
11,129

§ Raw data

SINOD-D 31 40977U 15058P   26145.01223869  .00003913  00000+0  33473-3 0  99932 40977  64.7739 348.1781 0118415  67.4007 293.9582 14.93817106111293

JSON: /api/v1/satellites/40977 · /tle

For live sub-satellite position, see the globe view (requires WebGL).

§ Visibility from observer

Set your observer location to see the next 7 days of passes ≥ 10°. The values pass through the URL so the page stays shareable.

No JS? Fill the form by hand. The geolocation button needs JavaScript.